Location: Perryvale
(54.4667°N, 113.3833°W)
Time: 23:38:54
(UTC+00:00)

Vanguard 1 Rocket - Pass Details

Date: 24 May 2024
Orbit: 649 x 4221 km, 34.3° (Epoch: 13 June)

Event Time Altitude Azimuth Distance (km) Brightness Sun altitude
Rises 16:09:41 0° 224° (SW) 8,296 12.1 39.7°
Reaches altitude 10° 16:17:03 10° 215° (SW) 6,935 11.9 40.7°
Maximum altitude 16:33:06 28° 167° (SSE) 4,305 11.7 42.8°
Drops below altitude 10° 16:43:30 10° 115° (ESE) 4,449 12.0 44.1°
Sets 16:46:54 0° 104° (ESE) 5,006 11.9 44.5°
